Selinsgrove, PA

9:23 AM EDT on March 25, 2017 (GMT -0400)
Penn Valley

Weather History for KSEG - December, 2013

Change the Weather History Date:

Tuesday, December 3, 2013

  Actual Average (KIPT) Record (KIPT)
Temperature  
Mean Temperature 38 °F -  
Max Temperature 48 °F 42 °F 66 °F (1998)
Min Temperature 28 °F 27 °F 5 °F (1976)
Degree Days  
Heating Degree Days 27    
Moisture  
Dew Point 31 °F    
Average Humidity 82    
Maximum Humidity 92    
Minimum Humidity 56    
Precipitation  
Precipitation 0.00 in - - ()
Sea Level Pressure  
Sea Level Pressure 29.95 in    
Wind  
Wind Speed 1 mph (North)    
Max Wind Speed 6 mph    
Max Gust Speed -    
Visibility 3 miles    
Events      
Averages and records for this station are not official NWS values.
T = Trace of Precipitation, MM = Missing Value Source: NWS Daily Summary

Daily Weather History Graph

Daily Weather History Graph

Search for Another Location

Airport or City:

Trip Planner

Search our weather history database for the weather conditions in past years. The results will help you decide how hot, cold, wet, or windy it might be!

Date:

Astronomy

Dec. 03, 2013 Rise Set
Actual Time 7:14 AM EST 4:39 PM EST
Civil Twilight 6:44 AM EST 5:10 PM EST
Nautical Twilight 6:09 AM EST 5:44 PM EST
Astronomical Twilight 5:36 AM EST 6:17 PM EST
Moon 7:41 AM EST (12/3) 5:41 PM EST (12/3)
Length of Visible Light 10h 26m
Length of Day
9h 25m
New Moon, 1% of the Moon is Illuminated
Dec 3
New Moon
Dec 9
First Quarter
Dec 17
Full
Dec 25
Last Quarter
Jan 1
New

Hourly Weather History & Observations

Time (EST) Temp. Windchill Dew Point Humidity Pressure Visibility Wind Dir Wind Speed Gust Speed Precip Events Conditions
12:53 AM 33.1 °F - 28.9 °F 85% 29.91 in 4.0 mi Calm Calm - N/A   Overcast
1:53 AM 33.1 °F - 30.0 °F 89% 29.91 in 3.0 mi Calm Calm - N/A   Overcast
2:53 AM 34.0 °F - 30.9 °F 89% 29.92 in 3.0 mi Calm Calm - N/A   Overcast
3:53 AM 34.0 °F - 30.9 °F 89% 29.92 in 3.0 mi Calm Calm - N/A   Overcast
4:53 AM 34.0 °F - 30.9 °F 89% 29.93 in 3.0 mi Calm Calm - N/A   Overcast
5:11 AM 34.0 °F - 30.9 °F 89% 29.92 in 2.5 mi Calm Calm - N/A   Overcast
5:39 AM 34.0 °F - 30.9 °F 89% 29.92 in 3.0 mi Calm Calm - N/A   Overcast
5:53 AM 34.0 °F 31.0 °F 30.9 °F 89% 29.93 in 3.0 mi North 3.5 mph - N/A   Overcast
6:00 AM 34.0 °F 31.0 °F 30.9 °F 89% 29.92 in 2.5 mi North 3.5 mph - N/A   Overcast
6:11 AM 34.0 °F - 30.9 °F 89% 29.92 in 3.0 mi Calm Calm - N/A   Overcast
6:53 AM 34.0 °F 31.0 °F 30.9 °F 89% 29.94 in 3.0 mi NNW 3.5 mph - N/A   Overcast
7:02 AM 34.0 °F - 30.9 °F 89% 29.93 in 2.5 mi Calm Calm - N/A   Overcast
7:18 AM 34.0 °F - 32.0 °F 92% 29.94 in 3.0 mi Calm Calm - N/A   Overcast
7:33 AM 34.0 °F - 30.9 °F 89% 29.94 in 2.0 mi Calm Calm - N/A   Overcast
7:53 AM 35.1 °F - 32.0 °F 89% 29.96 in 1.8 mi Calm Calm - N/A   Overcast
8:43 AM 36.0 °F - 32.0 °F 86% 29.95 in 2.0 mi Calm Calm - N/A   Overcast
8:53 AM 37.0 °F - 32.0 °F 82% 29.97 in 2.5 mi Calm Calm - N/A   Haze
9:23 AM 37.9 °F - 32.0 °F 79% 29.95 in 3.0 mi Calm Calm - N/A   Haze
9:53 AM 39.0 °F - 32.0 °F 76% 29.97 in 3.0 mi Calm Calm - N/A   Haze
10:53 AM 44.1 °F 42.5 °F 33.1 °F 65% 29.96 in 4.0 mi SE 3.5 mph - N/A   Haze
11:53 AM 45.0 °F 43.5 °F 33.1 °F 63% 29.95 in 4.0 mi South 3.5 mph - N/A   Haze
12:53 PM 46.0 °F - 33.1 °F 61% 29.93 in 4.0 mi Calm Calm - N/A   Haze
1:53 PM 46.9 °F - 33.1 °F 59% 29.92 in 4.0 mi SSE 4.6 mph - N/A   Haze
2:53 PM 48.0 °F - 33.1 °F 56% 29.93 in 4.0 mi South 5.8 mph - N/A   Haze
3:53 PM 46.0 °F - 33.1 °F 61% 29.95 in 4.0 mi Calm Calm - N/A   Haze
4:53 PM 42.1 °F - 33.1 °F 70% 29.97 in 5.0 mi Calm Calm - N/A   Haze
5:53 PM 39.0 °F - 33.1 °F 79% 29.97 in 4.0 mi Calm Calm - N/A   Haze
6:53 PM 34.0 °F - 30.0 °F 85% 29.99 in 4.0 mi Calm Calm - N/A   Clear
7:53 PM 32.0 °F - 28.9 °F 88% 29.99 in 3.0 mi Calm Calm - N/A   Clear
8:34 PM 32.0 °F - 28.9 °F 88% 29.98 in 2.5 mi Calm Calm - N/A   Clear
8:53 PM 28.0 °F - 26.1 °F 92% 30.00 in 2.5 mi Calm Calm - N/A   Clear
9:53 PM 30.0 °F 26.5 °F 28.0 °F 92% 30.01 in 2.5 mi NW 3.5 mph - N/A   Clear
10:53 PM 28.9 °F - 26.1 °F 89% 30.02 in 2.0 mi Calm Calm - N/A   Clear
11:41 PM 28.0 °F 22.8 °F 26.1 °F 92% 30.01 in 1.8 mi NNW 4.6 mph - N/A   Clear
11:53 PM 28.9 °F - 26.1 °F 89% 30.02 in 1.8 mi Calm Calm - N/A   Clear